Location: Unspecified
(51.0950°N, 12.9690°E)
Time: 22:15:28
(UTC+00:00)

Envisat - Visible Passes

Search period start: 05 October 2024 00:00
Search period end: 15 October 2024 00:00
Orbit: 762 x 764 km, 98.3° (Epoch: 05 October)

Date Brightness Start Highest point End Pass type
(mag) Time Alt. Az. Time Alt. Az. Time Alt. Az.
05 Oct 4.6 01:31:37 10° NNE 01:36:02 29° E 01:36:20 29° E visible
05 Oct 3.3 03:10:20 10° N 03:15:11 47° WNW 03:16:28 38° WSW visible
06 Oct 5.5 00:55:18 10° NE 00:58:06 15° E 00:58:18 15° E visible
06 Oct 2.9 02:32:41 10° NNE 02:37:48 89° ESE 02:38:26 70° SSW visible
06 Oct 4.5 04:12:49 10° NNW 04:16:07 18° NW 04:18:34 13° W visible
07 Oct 3.8 01:55:20 10° NNE 02:00:13 45° E 02:00:23 45° ESE visible
07 Oct 3.8 03:34:36 10° N 03:39:02 31° WNW 03:40:31 27° W visible
08 Oct 5.0 01:18:25 10° NE 01:22:20 23° E 01:22:20 23° E visible
08 Oct 3.0 02:56:46 10° N 03:01:47 59° WNW 03:02:28 54° WSW visible
08 Oct 4.9 04:37:49 10° NNW 04:39:45 12° NW 04:41:41 10° WNW visible
09 Oct 5.8 00:42:54 10° ENE 00:44:17 11° E 00:44:17 11° E visible
09 Oct 3.1 02:19:14 10° NNE 02:24:19 71° ESE 02:24:25 71° ESE visible
09 Oct 4.3 03:59:01 10° N 04:02:48 22° WNW 04:04:33 18° W visible
10 Oct 4.3 01:41:59 10° NNE 01:46:22 35° E 01:46:22 35° E visible
10 Oct 3.5 03:20:58 10° N 03:25:39 39° WNW 03:26:30 36° W visible
11 Oct 5.3 01:05:20 10° NE 01:08:18 18° E 01:08:18 18° E visible
11 Oct 2.8 02:43:14 10° NNE 02:48:19 75° WNW 02:48:26 75° W visible
11 Oct 4.7 04:23:41 10° NNW 04:26:28 15° NW 04:28:34 12° W visible
12 Oct 3.6 02:05:47 10° NNE 02:10:23 54° E 02:10:23 54° E visible
12 Oct 4.0 03:45:17 10° N 03:49:27 26° WNW 03:50:30 24° W visible
13 Oct 4.8 01:28:42 10° NE 01:32:19 27° ENE 01:32:19 27° ENE visible
13 Oct 3.2 03:07:21 10° N 03:12:14 49° WNW 03:12:27 48° WNW visible
13 Oct 5.0 04:49:30 10° NW 04:50:03 10° NW 04:50:37 10° NW visible
14 Oct 5.7 00:52:26 10° NE 00:54:14 14° ENE 00:54:14 14° ENE visible
14 Oct 3.0 02:29:42 10° NNE 02:34:22 75° NNE 02:34:22 75° NNE visible
14 Oct 4.4 04:09:46 10° NNW 04:13:09 18° NW 04:14:31 17° WNW visible
